www.pogodaiklimat.ru

Погода и климат >> Архив погоды >> Россия >> Бурятия >> Новоселенгинск


ПОГОДА в Новоселенгинске

  • Прогноз погоды в Новоселенгинске
  • Монитор погоды в Новоселенгинске

АРХИВ ПОГОДЫ в Новоселенгинске

Время (UTC), дата Ветер
(напр.,м/с)
 
Видим.   Явления Облачность Т
(С)
Тd
(С)
f
(%)
Тe
(С)
Тes
(С)
Комфортность P
(гПа)
Po
(гПа)
Тmin
(С)
Tmax
(С)
R
(мм)
R24
(мм)
S
(см)
18 11.09 С 5
{10}
19 км слаб. ливневой дождь 10/4 600 м
[Cb cap Ac As]
+11.2 +7.7 79 +9 +9 1008.0 943.5
21 11.09 С 3 50 км {ливн. осадки} 10/3 600 м
[Cb cap Ac trans Ci fib]
+10.2 +5.7 74 +8 +8 1010.3 945.4
00 12.09 С 3 50 км {ливн. осадки} 10/4 1000 м
[Sc Ac As]
+10.9 +5.7 70 +9 +9 1011.6 946.8 +10.2 2
03 12.09 СЗ 2 50 км 8/3 1000 м
[Sc Ci fib]
+13.6 +5.9 60 +13 +18 1012.0 947.7
06 12.09 СЗ 4 50 км 8/4 1000 м
[Cb cap Ci fib]
+16.5 +5.0 46 +16 +19 1010.3 946.8
09 12.09 С 4 50 км 4/3 1000 м
[Cu hum Ci fib]
+17.2 +2.5 37 +17 +18 1009.6 946.2
12 12.09 СЗ 2 50 км 3/1 1000 м
[Sc Ci fib]
+11.5 +5.5 67 +11 +11 1012.3 947.5 +17.3
18 12.09 СЗ 8-10
{13}
18 км слаб. ливневой дождь 10/4 600 м
[Cb cap Ac und]
+7.6 +3.8 77 +3 +3 1016.6 950.7
21 12.09 Ю 1
{11}
50 км {ливн. осадки} 8/3 600 м
[Cb cap Ac trans]
+5.9 +4.1 88 +5 +5 1017.6 951.2
00 13.09 Ю 2 50 км {ливн. осадки} 8/3 1000 м
[Sc Ac trans]
+6.3 +4.7 89 +4 +4 1018.6 952.3 +5.1 4
03 13.09 Ю 2 50 км 8/5 1000 м
[Sc diur, vesp Ci fib]
+11.0 +4.1 62 +10 +13 1017.1 951.9
06 13.09 Ю 2 50 км 9/3 1000 м
[Sc Ac trans Ci fib]
+13.0 +2.7 50 +13 +16 1014.2 949.6
09 13.09 Ю 3 50 км 10/3 1000 м
[Sc Ac lent Ci fib]
+13.7 +4.1 52 +13 +14 1012.1 947.9
12 13.09 ЮЗ 1 50 км 10/3 1000 м
[Sc Ac trans]
+11.6 +5.0 64 +12 +12 1011.7 947.0 +13.7
15 13.09 Ю 1 50 км 10/4 1000 м
[Sc Ac und]
+10.8 +5.7 71 +11 +11 1010.8 946.0
18 13.09 штиль 0 50 км 8/3 1000 м
[Sc Ac trans Ci fib]
+9.8 +5.9 77 +9 +9 1010.1 945.1
21 13.09 З 1 50 км 6/1 600 м
[Cb cap Ci fib]
+7.2 +5.6 90 +6 +6 1010.0 944.5
00 14.09 штиль 0 50 км 5/1 1000 м
[Sc Ci fib]
+7.9 +5.7 86 +7 +8 1010.3 944.9 +5.7
03 14.09 ЮЗ 2 50 км 8/1 1000 м
[Cu hum Ci fib]
+13.1 +5.8 61 +13 +18 1009.1 944.9
06 14.09 СЗ 4 50 км 10/4 1000 м
[Cb cap Ac trans Ci fib]
+16.1 -0.8 32 +16 +17 1008.2 944.6
09 14.09 СВ 7
{13}
50 км 10/4 600 м
[Cb cap Ac trans Ci fib]
+12.3 +1.3 47 +10 +10 1010.8 946.3
12 14.09 С 5
{12}
50 км в посл. час ливневой дождь 10/4 600 м
[Cb cap Ac As]
+7.4 +2.3 70 +4 +4 1016.5 950.5 +17.3 0.3
15 14.09 С 5
{12}
50 км 10/5 1000 м
[Sc Ac trans]
+6.7 -1.9 54 +3 +3 1019.6 953.2
18 14.09 С 5 50 км 10/3 1000 м
[Sc Ac lent]
+4.1 -4.5 53 -0 -0 1022.3 955.1
21 14.09 СЗ 2 50 км 3/0
[Ac lent Ci fib]
-0.7 -3.2 83 -4 -4 1023.6 955.2
00 15.09 ЮЗ 2 50 км 6/0
[Ac trans Ci fib]
+2.1 -0.9 81 -1 -0 1023.1 955.4 -1.3
03 15.09 Ю 4-10
{10}
50 км 8/4 1000 м
[Sc Ci fib]
+8.1 +0.8 60 +5 +8 1019.6 953.6
06 15.09 ЮЗ 4
{10}
50 км 10/3 1000 м
[Sc Ac trans Ci fib]
+11.8 +1.5 49 +10 +12 1016.3 951.3
09 15.09 ЮЗ 3 50 км 10/3 1000 м
[Sc Ac trans Ci fib]
+14.1 +1.3 42 +13 +14 1014.0 949.6
12 15.09 Ю 1 50 км 8/3 1000 м
[Sc Ac trans Ci fib]
+11.7 +3.2 56 +12 +12 1013.9 949.0 +14.8
15 15.09 СВ 4 50 км 6/0
[Ac lent Ci fib]
+9.5 +3.4 66 +7 +7 1014.0 948.7
18 15.09 С 1 50 км 3/0
[Ac trans Ci fib]
+5.1 +2.9 86 +4 +4 1014.2 947.9
21 15.09 СЗ 2 50 км 3/0
[Ci fib]
+1.7 +0.7 93 -2 -2 1015.1 947.9
00 16.09 ЮЗ 1 50 км местами туман поземный 10/0
[Ac As]
+3.8 +2.6 92 +2 +3 1015.4 948.7 +1.5
03 16.09 СВ 1 50 км 10/3 600 м
[Cb cap Ac und Ci fib]
+9.1 +4.2 71 +9 +12 1015.1 949.6
06 16.09 СЗ 4 50 км 10/3 1000 м
[Sc Ac und Ci fib]
+16.6 +3.5 42 +16 +18 1012.6 948.9
09 16.09 С 9-13
{14}
50 км 10/4 600 м
[Cb cap Ac As]
+11.8 +2.8 54 +9 +9 1015.4 950.5
12 16.09 СЗ 8-13
{15}
50 км 10/3 1000 м
[Sc Ac trans Ci fib]
+10.2 +0.3 50 +7 +7 1018.1 952.6 +16.7
15 16.09 С 8-11
{13}
50 км 6/0
[Ac lent Ci fib]
+7.9 -1.5 51 +4 +4 1022.4 956.1
18 16.09 С 6
{11}
50 км 8/1 1000 м
[Sc Ac lent Ci fib]
+6.2 -2.2 55 +2 +2 1024.9 958.2
21 16.09 СЗ 2 50 км 6/0
[Ac lent Ci fib]
+2.8 -1.0 76 -0 -0 1027.7 959.9
00 17.09 З 1 50 км 10/0
[Ac und]
+3.9 +0.3 77 +3 +3 1029.2 961.6 +2.2
03 17.09 Ю 3 50 км 8/3 1000 м
[Sc Ac trans]
+9.0 +0.2 54 +7 +9 1028.4 962.0
06 17.09 ЮЗ 2 50 км 3/1 1000 м
[Sc Ci fib]
+13.9 0.0 38 +14 +21 1025.1 960.0
09 17.09 Ю 3 50 км 1/0
[Ci fib]
+16.3 +2.3 39 +16 +18 1022.8 958.4
12 17.09 СЗ 2 50 км ясно +10.9 +4.7 66 +10 +10 1023.8 958.2 +16.3
15 17.09 З 1 50 км ясно +6.1 +3.4 83 +5 +5 1025.0 958.2
18 17.09 штиль 0 50 км ясно +5.3 +3.7 89 +4 +4 1024.4 957.5
21 17.09 СВ 1 50 км 10/0
[Ac lent Cs]
+3.3 +2.3 93 +2 +2 1024.0 956.6
00 18.09 СВ 2 50 км 10/0
[Ac lent Ci fib]
+4.8 +3.4 91 +2 +2 1023.2 956.2 +3.3
03 18.09 штиль 0 50 км 10/0
[Ac lent Ci fib]
+11.7 +4.6 62 +11 +17 1020.4 955.2
06 18.09 В 2 50 км 10/0
[Ac trans Ci fib]
+15.4 +5.7 52 +15 +20 1017.6 953.4
09 18.09 Ю 1 50 км 8/0
[Ac lent Ci fib]
+18.9 +7.7 48 +21 +22 комфорт 1016.3 952.9
12 18.09 СЗ 1 50 км 3/0
[Ac trans Ci fib]
+11.2 +7.5 78 +11 +11 1019.1 953.9 +19.0

 

Местоположение метеостанции Новоселенгинск (Бурятия, Россия): широта 51.10 долгота 106.60 высота над уровнем моря 556 м.

В архиве по умолчанию представлена погода в Новоселенгинске за последнюю неделю. Архивные данные за месяц целиком и за предыдущие месяцы, начиная с января 2011 года, Вы можете получить, выбрав интересующий диапазон дат из раскрывающегося списка и нажав кнопку "Ввод!".


*Определитесь, кто Вы:
робот инопланетянин человек

Внимание! Время в таблицах - всемирное. Для получения местного времени необходимо прибавить поправку, которая равна 8 ч.

Смотрите также архив погоды в соседних городах и на ближайших метеорологических станциях:

Погода в Кяхте (Бурятия, Россия) (82 км)
Погода в Иволгинске (Бурятия, Россия) (83 км)
Погода в Бичуре (Бурятия, Россия) (84 км)
Погода в Мухоршибири (Бурятия, Россия) (84 км)
Погода в Бабушкине (Бурятия, Россия) (87 км)
Погода в Кабанске (Бурятия, Россия) (106 км)
Погода в Петропавловке (Бурятия, Россия) (106 км)
Погода в Улан-Удэ (Бурятия, Россия) (107 км)
Погода в Улан-Удэ АМС (Бурятия, Россия) (113 км)
Погода в Танхое (Бурятия, Россия) (116 км)

Пояснения к столбцам:

Ветер - указаны скорость ветра в м/с - средняя за 10 мин, порывы в срок и между сроками (в фигурных скобках) и направление, откуда дует ветер: С - северный, СВ - северо-восточный, В - восточный, ЮВ - юго-восточный, Ю - южный, ЮЗ - юго-западный, З - западный, СЗ - северо-западный.
Видимость - горизонтальная дальность видимости в метрах или километрах. При видимости от 1 до 10 км при отсутствии осадков обычно наблюдается дымка, при ухудшении видимости до 1 км и менее - туман. В сухую погоду видимость может ухудшаться дымом, пылью или мглою.
Явления - указаны атмосферные явления, наблюдавшиеся в срок или в последний час перед сроком; фигурными скобками обозначены явления, наблюдавшиеся между сроками (за 1-3 часа до срока); квадратными скобками обозначены град или гололедные отложения с указанием их диаметра в мм.
Облачность - указаны через наклонную черту общая и нижняя облачность в баллах и высота нижней границы облаков в метрах; квадратными скобками обозначены формы облаков: Ci - перистые, Cs - перисто-слоистые, Cc - перисто-кучевые, Ac - высококучевые, As - высокослоистые, Sc - слоисто-кучевые, Ns - слоисто-дождевые, Cu - кучевые, Cb - кучево-дождевые. Подробнее классификацию облаков см. в Атласе облаков (PDF).
T - Температура воздуха - температура, измеренная на высоте 2 м над землей.
Td - Температура точки росы - температура, при понижении до которой содержащийся в воздухе водяной пар достигнет насыщения.
f - Относительная влажность воздуха - влажноcть воздуха, измеренная на высоте 2 м над землей.
Te - Эффективная температура - температура, которую ощущает одетый по сезону человек в тени. Характеристика душности погоды. При расчете учитывается влияние влажности воздуха и скорости ветра на теплоощущения человека.
Tes - Эффективная температура на солнце - температура, которую ощущает человек, с поправкой на солнечный нагрев. Характеристика знойности погоды. Зависит от высоты солнца над горизонтом, облачности и скорости ветра. Ночью, в пасмурную погоду, а также при ветре 12 м/с и более поправка равна нулю.
P - Атмосферное давление - приведенное к уровню моря атмосферное давление.
Po - Атмосферное давление - измеренное на уровне метеостанции атмосферное давление.
Tmin - Минимальная температура - минимум температуры воздуха на высоте 2 м над землей.
Tmax - Максимальная температура - максимум температуры воздуха на высоте 2 м над землей.
R - Количество осадков - Количество выпавших осадков за период времени, мм. При наведении курсора мыши на число - период времени, за который выпало указанное количество осадков.
R24 - Количество осадков - Количество выпавших осадков за 24 часа, мм.
S - Снежный покров - Высота снежного покрова, см. При наведении курсора мыши на число - состояние снежного покрова и степень покрытия местности в баллах.